Location: Buena Vista
(10.5833°N, 67.0667°W)
Time: 06:40:30
(UTC+00:00)

Daily predictions for brighter satellites

Satellite Brightness Start Highest point End
(mag) Time Altitude Azimuth Time Altitude Azimuth Time Altitude Azimuth
Yuri Rocket 3.1 23:04:22 10° SW 23:09:14 65° SSE 23:13:21 10° ENE
Cosmos 2151 4.4 23:10:06 10° SSW 23:14:06 43° W 23:18:06 10° NNW
CZ-4 R/B 1.3 23:12:27 10° SSE 23:16:15 62° ENE 23:20:05 10° N
Longmarch 3A Rocket 2.2 23:15:43 10° SSW 23:17:05 16° SSE 23:18:06 11° ESE
CZ-2C R/B 4.0 23:15:01 10° SE 23:19:13 26° ENE 23:23:15 10° NNE
CSL-04 Rocket 4.2 23:16:05 10° SE 23:20:57 37° ENE 23:25:45 10° N
Cosmos 2082 Rocket 3.9 23:19:54 10° ESE 23:21:14 11° ESE 23:22:33 10° E
SL-8 Rocket 4.0 23:20:34 10° S 23:26:34 56° E 23:32:34 10° NNE
Cosmos 2341 Rocket 4.0 23:21:03 10° S 23:27:15 85° E 23:33:29 10° N
MOS 1 Rocket 3.6 23:22:40 10° NNE 23:27:55 61° E 23:32:55 10° S
USA 267 4.1 23:27:55 10° NNE 23:34:14 55° NW 23:40:36 10° SW
VEP-3 4.0 23:30:08 10° NW 23:35:02 32° NNE 23:42:55 10° E
ARGOS 4.2 23:33:55 13° SE 23:37:38 26° ENE 23:42:03 10° NNE
H-2A ROCKET BODY 2.2 23:38:54 10° WNW 23:42:09 78° NNE 23:49:53 18° ESE
Milstar 3 4.4 23:36:57 10° W 23:43:47 36° SSW 23:54:23 10° SE
Meteor 2-3 Rocket 4.2 23:38:08 10° SSW 23:43:49 68° W 23:49:33 10° N
Cosmos 405 4.4 23:41:41 10° NE 23:43:59 20° ENE 23:43:59 20° ENE
Cosmos 1331 Rocket 3.9 23:40:39 10° N 23:45:50 74° ENE 23:50:59 10° SSE
Cosmos 2369 Rocket 3.6 23:40:56 10° NW 23:46:09 39° WSW 23:51:25 10° S
Cosmos 1328 Rocket 4.1 23:42:39 10° NNE 23:46:43 36° E 23:49:13 20° SE
H-2A R/B 2.3 23:44:23 10° SSE 23:49:32 50° ENE 23:54:32 10° N
Cosmos 1933 3.6 23:48:05 10° NNE 23:52:00 45° E 23:54:09 23° SSE
